Regional Weather Roundup
Issued by NWS

Home | Current Version | Previous Version | Graphics & Text | Print | Product List | Glossary On
Versions: 1 2 3 4 5 6 7 8 9 10 11 12 13 14 15 16 17 18 19 20 21 22 23 24 25 26 27 28 29 30 31 32 33 34 35 36 37 38 39 40 41 42 43 44 45 46 47 48 49 50
764
ASUS45 KTFX 101610
RWRMT
MONTANA REGIONAL WEATHER ROUNDUP
NATIONAL WEATHER SERVICE GREAT FALLS MT
900 AM MST WED FEB 10 2016

NOTE: "FAIR" INDICATES FEW OR NO CLOUDS BELOW 12000 FEET WITH NO
SIGNIFICANT WEATHER AND/OR OBSTRUCTIONS TO VISIBILITY.

MTZ001>007-043-101700-
WEST OF THE DIVIDE

CITY           SKY/WX    TMP DP  RH WIND       PRES   REMARKS
KALISPELL      FOG       22  19  89 W3        30.27R VSB 1/4
MISSOULA       FOG       23  22  96 CALM      30.32R VSB<1/4
BUTTE          CLOUDY     9   5  84 E5        30.26S
MULLAN PASS    CLEAR     37  27  67 S6        30.22F
ANACONDA         N/A     30  21  69 NW5       30.24S
DEER LODGE       N/A     23  21  93 CALM      30.27S
HAMILTON         N/A     28  25  86 CALM      30.28
LIBBY            N/A     27  27 100 CALM      30.29S VSB 0
PLAINS           N/A     28  24  85 CALM      30.27S VSB 0
$$

MTZ008-052>055-101700-
SOUTHWEST MONTANA

CITY           SKY/WX    TMP DP  RH WIND       PRES   REMARKS
BOZEMAN        CLOUDY    19  15  84 SE6       30.22S WCI  11
DILLON         CLOUDY    32  23  69 S12       30.27R WCI  23
ENNIS          SUNNY     34  23  64 S21       30.29F WCI  22
THREE FORKS      N/A     24  24 100 CALM      30.19R
TWIN BRIDGES     N/A     26  16  66 E5        30.23R
$$

MTZ009-010-012-014-046-048-049-054-101700-
EAST SLOPES AND CENTRAL MONTANA

CITY           SKY/WX    TMP DP  RH WIND       PRES   REMARKS
CUT BANK       CLOUDY    42  26  53 NW8       30.08R
GREAT FALLS    CLOUDY    45  26  47 SW13      30.06R
HELENA         CLOUDY    26  24  92 CALM      30.19R
CHOTEAU          N/A     52  23  32 W10       30.07R
CONRAD           N/A     44  29  56 N2        30.09R
$$

MTZ011-013-016-021-045-047-050-051-101700-
NORTH CENTRAL MONTANA

CITY           SKY/WX    TMP DP  RH WIND       PRES   REMARKS
HAVRE          CLOUDY    32  27  81 CALM      30.07R
LEWISTOWN      CLOUDY    41  25  53 SW14      30.05S
N BAR RANCH      N/A     52  18  25 NW12G20   30.05R
CHINOOK          N/A     32  27  80 CALM      30.08R
$$

MTZ017>020-022>027-061-062-101700-
NORTHEAST MONTANA

CITY           SKY/WX    TMP DP  RH WIND       PRES   REMARKS
GLASGOW        CLOUDY    34  28  79 NW12      30.02R WCI  25
JORDAN           N/A     37  29  72 W3        30.00R
SIDNEY         SUNNY     39  28  65 NW22      29.96R WCI  29
WOLF POINT     MOSUNNY   39  32  76 N9        30.00R
PLENTYWOOD       N/A     34  30  86 NW8       29.97R WCI  27
POPLAR           N/A     34  30  86 SW3       30.00R
SCOBEY           N/A     33  25  73 NW10      29.96R WCI  25
$$

MTZ028>42-056>058-101700-
SOUTHCENTRAL AND SOUTHEAST MONTANA

CITY           SKY/WX    TMP DP  RH WIND       PRES   REMARKS
BAKER          SUNNY     38  24  57 W13       29.93R WCI  30
BILLINGS       CLOUDY    47  19  33 W20G29    30.04R
LIVINGSTON     CLOUDY    48  20  32 SW32G41   30.15R
MILES CITY     CLOUDY    41  26  55 NW7       29.98R
FORSYTH          N/A     43  23  45 SW6       30.00R
LAUREL           N/A     42  20  41 SW8       30.04R
ROUNDUP          N/A     51  19  28 SW5       29.94S
$$

REGIONAL REPORTS...DAKOTAS

CITY           SKY/WX    TMP DP  RH WIND       PRES   REMARKS
WILLISTON      CLOUDY    30  26  85 N10       29.97R WCI  21
MINOT          CLOUDY    17   8  67 E10       29.94R WCI   5
DICKINSON      SUNNY     37  28  70 NW20      29.86R WCI  27
BEACH            N/A     39  30  70 NW20      29.95R WCI  30
CROSBY         CLOUDY    18  18 100 NE7       29.99R WCI   8
TIOGA          CLOUDY    21  21 100 NE8       29.97R WCI  12
WATFORD CITY   PTSUNNY   32  28  86 NW9       29.93R WCI  24
BISMARCK       CLOUDY    23  16  74 E12       29.91R WCI  12
GRAND FORKS    CLOUDY     7  -1  70 E9        30.13R WCI  -7
FARGO          LGT SNOW   8   2  76 E8        30.10R WCI  -4
BUFFALO SD       N/A     48  24  39 NW26      29.83R
RAPID CITY     SUNNY     58  25  28 NW13      29.90R
$$

REGIONAL REPORTS...WYOMING/IDAHO/WASHINGTON

CITY           SKY/WX    TMP DP  RH WIND       PRES   REMARKS
GILLETTE       SUNNY     51  19  28 W9        30.02F
SHERIDAN       MOSUNNY   48  18  29 NW3       30.00F
BUFFALO WY     SUNNY     52  18  26 S5        30.06R
CODY           CLOUDY    52  16  24 W13G20    30.11F
YELLOWSTONE LA   N/A      9   7  92 CALM      30.38R
IDAHO FALLS    CLOUDY     8   5  87 N7        30.43S WCI  -3
SALMON         CLOUDY     9   7  92 CALM      30.46S VSB 1/4
BOISE          FOG       28  28 100 CALM      30.45R VSB<1/4
SPOKANE        FOG       30  30 100 N3        30.24R VSB 1/4
$$

REGIONAL REPORTS...ALBERTA

CITY           SKY/WX    TMP DP  RH WIND       PRES   REMARKS
EDMONTON       CLOUDY    30  27  86 NE7       30.12S WCI  23
CALGARY        MOCLDY    28  23  80 N3        30.08R
LETHBRIDGE     MOCLDY    32  27  80 W8        30.10R WCI  25
MEDICINE HAT   MOCLDY    28  27  93 N6        30.09R WCI  22
MILK RIVER       N/A     36  27  69 N9          N/A  WCI  29
ONEFOUR          N/A     32  27  80 W5          N/A
$$

REGIONAL REPORTS...SASKATCHEWAN

CITY           SKY/WX    TMP DP  RH WIND       PRES   REMARKS
SWIFT CURRENT  FRZ RAIN  28  28 100 N12       30.04R VSB 1/8 WCI  18
REGINA         CLOUDY    25  25 100 NW14G21   29.99R WCI  13
SASKATOON      CLOUDY    21  18  86 N15G23    30.11R WCI   8
CYPRESS HILLS    N/A     34  30  86 N6          N/A  WCI  29
VAL MARIE        N/A     36  30  80 N9          N/A  WCI  29
ROCKGLEN         N/A     30  28  93 N17G23      N/A  WCI  18
ASSINIBOIA       N/A     30  27  86 NE10        N/A  WCI  21
$$




USA.gov is the U.S. government's official web portal to all federal, state and local government web resources and services.